Regional Weather Roundup
Issued by NWS

Home | Current Version | Previous Version | Graphics & Text | Print | Product List | Glossary On
Versions: 1 2 3 4 5 6 7 8 9 10 11 12 13 14 15 16 17 18 19 20 21 22 23 24 25 26 27 28 29 30 31 32 33 34 35 36 37 38 39 40 41 42 43 44 45 46 47 48 49 50
000
ASUS45 KCYS 270410
RWRWY

WYOMING REGIONAL WEATHER ROUNDUP
NATIONAL WEATHER SERVICE CHEYENNE WY
900 PM MST THU FEB 26 2015

NOTE:  "FAIR" INDICATES FEW OR NO CLOUDS BELOW 12,000 FEET
WITH NO SIGNIFICANT WEATHER AND/OR OBSTRUCTIONS TO VISIBILITY.

WYZ001-270500-
YELLOWSTONE NATIONAL PARK

CITY           SKY/WX    TMP DP  RH WIND       PRES   REMARKS
LK YELLOWSTONE   N/A      3  -4  72 NW3       29.88S
W YELLOWSTONE  NOT AVBL

$$
WYZ002>013-054>058-071-098>099-270500-
NORTHERN WYOMING

CITY           SKY/WX    TMP DP  RH WIND       PRES   REMARKS
JACKSON        FAIR      14   9  79 NE3       29.89S
CODY           FAIR       3   0  85 SE3       30.09F
GREYBULL       MOCLDY    14   4  64 NW7       30.17F WCI   4
WORLAND        CLOUDY    17  10  74 SE6       30.15F WCI   9
SHERIDAN       FAIR      -4 -10  75 S5        30.20F WCI -15
BUFFALO        CLOUDY     6   0  76 SE6       30.13F WCI  -4
GILLETTE       FAIR      -7 -12  79 S7        30.22F WCI -21
HULETT         FAIR      -2 -13  60 MISG      30.25F
NEWCASTLE      MOCLDY     5   1  85 MISG      30.28S

$$
WYZ014>020-022>026-101>103-270500-
CENTRAL WYOMING

CITY           SKY/WX    TMP DP  RH WIND       PRES   REMARKS
BIG PINEY      CLOUDY    14   8  77 S12       29.92R WCI   0
PINEDALE       LGT SNOW  14  10  85 E5        29.92S WCI   6
DUBOIS         LGT SNOW   5   3  92 S7        29.94F WCI  -7
LANDER         LGT SNOW   9   5  84 CALM      30.06S FOG
RIVERTON       CLOUDY     7   2  80 NE7       30.08F WCI  -5
CASPER         LGT SNOW   6   1  80 NE7       30.11F WCI  -6
DOUGLAS        CLOUDY    10   5  80 SE7       30.17F WCI  -1

$$
WYZ021-027>030-104>119-270500-
SOUTHERN WYOMING

CITY           SKY/WX    TMP DP  RH WIND       PRES   REMARKS
EVANSTON       LGT SNOW  22  20  92 CALM      29.86F FOG
FORT BRIDGER   LGT SNOW  20  19  96 E10       29.90S WCI   8
ROCK SPRINGS   CLOUDY     8   3  80 NE23      29.94S WCI -13
DIXON          CLOUDY    19  11  69 NE13      29.91S WCI   7
RAWLINS        CLOUDY     6   0  76 NE17      29.96F WCI -13
SARATOGA       LGT SNOW  10   7  85 W8        29.92F WCI  -1
LARAMIE        CLOUDY     4  -2  76 SE18      29.95S WCI -16
CHEYENNE       LGT SNOW   7   2  80 SE13      30.07F WCI  -9
TORRINGTON     MOCLDY     6   0  76 E9        30.25S WCI  -8
PINE BLUFFS    LGT SNOW  10   5  79 E8        30.18F WCI  -1

$$



USA.gov is the U.S. government's official web portal to all federal, state and local government web resources and services.